TimeCDT,TemperatureF,Dew PointF,Humidity,Sea Level PressureIn,VisibilityMPH,Wind Direction,Wind SpeedMPH,Gust SpeedMPH,PrecipitationIn,Events,Conditions,WindDirDegrees,DateUTC
12:15 AM,79.9,68.5,68,29.89,10.0,ESE,5.8,-,N/A,,Clear,120,2013-07-07 05:15:00
12:35 AM,79.2,68.9,71,29.89,10.0,ESE,5.8,-,N/A,,Clear,120,2013-07-07 05:35:00
12:55 AM,78.8,68.9,72,29.90,10.0,SE,5.8,-,N/A,,Clear,130,2013-07-07 05:55:00
1:15 AM,78.3,68.9,73,29.90,10.0,SE,5.8,-,N/A,,Clear,130,2013-07-07 06:15:00
1:35 AM,77.9,68.9,74,29.89,10.0,ESE,4.6,-,N/A,,Clear,120,2013-07-07 06:35:00
1:55 AM,77.2,68.9,76,29.89,10.0,SE,4.6,-,N/A,,Clear,130,2013-07-07 06:55:00
2:15 AM,76.6,68.9,77,29.89,10.0,SE,4.6,-,N/A,,Clear,140,2013-07-07 07:15:00
2:35 AM,76.5,68.9,77,29.88,10.0,ESE,4.6,-,N/A,,Clear,120,2013-07-07 07:35:00
2:55 AM,75.9,68.9,79,29.88,10.0,ESE,5.8,-,N/A,,Clear,120,2013-07-07 07:55:00
3:15 AM,75.6,68.9,80,29.88,10.0,ESE,3.5,-,N/A,,Clear,120,2013-07-07 08:15:00
3:35 AM,75.0,68.9,81,29.88,10.0,ESE,4.6,-,N/A,,Clear,110,2013-07-07 08:35:00
3:55 AM,75.2,68.9,81,29.88,10.0,SE,4.6,-,N/A,,Clear,130,2013-07-07 08:55:00
4:15 AM,74.7,68.9,82,29.88,10.0,ESE,6.9,-,N/A,,Clear,120,2013-07-07 09:15:00
4:35 AM,74.7,68.9,82,29.88,10.0,ESE,5.8,-,N/A,,Clear,110,2013-07-07 09:35:00
4:55 AM,74.7,68.9,82,29.88,10.0,ESE,5.8,-,N/A,,Clear,110,2013-07-07 09:55:00
5:15 AM,74.5,68.9,83,29.89,10.0,East,5.8,-,N/A,,Mostly Cloudy,100,2013-07-07 10:15:00
5:35 AM,74.8,69.1,82,29.89,10.0,ESE,6.9,-,N/A,,Overcast,120,2013-07-07 10:35:00
5:55 AM,75.2,69.6,83,29.90,10.0,SE,8.1,-,N/A,,Overcast,140,2013-07-07 10:55:00
6:15 AM,75.2,69.8,83,29.90,10.0,ESE,5.8,-,N/A,,Overcast,120,2013-07-07 11:15:00
6:35 AM,75.2,69.4,82,29.90,10.0,ESE,4.6,-,N/A,,Overcast,120,2013-07-07 11:35:00
6:55 AM,75.4,69.3,81,29.91,10.0,East,4.6,-,N/A,,Overcast,100,2013-07-07 11:55:00
7:15 AM,75.6,69.1,80,29.91,10.0,East,6.9,-,N/A,,Overcast,90,2013-07-07 12:15:00
7:35 AM,75.7,69.1,80,29.92,10.0,East,6.9,-,N/A,,Overcast,90,2013-07-07 12:35:00
7:55 AM,75.9,69.4,80,29.93,10.0,East,8.1,-,N/A,,Overcast,100,2013-07-07 12:55:00
8:15 AM,76.5,69.8,80,29.93,10.0,ESE,5.8,-,N/A,,Overcast,110,2013-07-07 13:15:00
8:35 AM,77.2,70.0,78,29.93,10.0,ESE,6.9,-,N/A,,Overcast,120,2013-07-07 13:35:00
8:55 AM,77.9,70.0,76,29.94,10.0,ESE,8.1,-,N/A,,Mostly Cloudy,110,2013-07-07 13:55:00
9:15 AM,79.7,69.6,71,29.94,10.0,ESE,6.9,-,N/A,,Mostly Cloudy,110,2013-07-07 14:15:00
9:35 AM,81.1,69.1,67,29.94,10.0,ESE,10.4,-,N/A,,Mostly Cloudy,110,2013-07-07 14:35:00
9:55 AM,82.4,68.7,63,29.94,10.0,ESE,6.9,-,N/A,,Scattered Clouds,110,2013-07-07 14:55:00
10:15 AM,83.8,68.0,59,29.94,10.0,East,5.8,-,N/A,,Scattered Clouds,90,2013-07-07 15:15:00
10:35 AM,84.7,67.3,56,29.95,10.0,ESE,10.4,-,N/A,,Scattered Clouds,120,2013-07-07 15:35:00
10:55 AM,86.0,66.6,52,29.95,10.0,ESE,10.4,-,N/A,,Mostly Cloudy,110,2013-07-07 15:55:00
11:15 AM,86.5,66.0,50,29.95,10.0,SE,9.2,-,N/A,,Mostly Cloudy,130,2013-07-07 16:15:00
11:35 AM,86.7,65.7,49,29.95,10.0,East,6.9,-,N/A,,Overcast,100,2013-07-07 16:35:00
11:55 AM,87.1,65.7,49,29.95,10.0,SE,8.1,-,N/A,,Overcast,140,2013-07-07 16:55:00
12:15 PM,88.0,65.3,47,29.94,10.0,SSE,8.1,-,N/A,,Overcast,150,2013-07-07 17:15:00
12:35 PM,89.2,63.9,43,29.94,10.0,SE,9.2,-,N/A,,Mostly Cloudy,140,2013-07-07 17:35:00
12:55 PM,88.3,64.6,45,29.94,10.0,SE,12.7,18.4,N/A,Rain,Light Rain,140,2013-07-07 17:55:00
1:15 PM,85.5,68.5,57,29.95,10.0,SE,11.5,19.6,N/A,Rain,Light Rain,130,2013-07-07 18:15:00
1:35 PM,84.4,70.0,62,29.93,10.0,ESE,10.4,-,N/A,,Mostly Cloudy,110,2013-07-07 18:35:00
1:55 PM,88.2,66.6,49,29.93,10.0,SE,10.4,-,N/A,,Scattered Clouds,130,2013-07-07 18:55:00
2:15 PM,87.1,67.1,51,29.93,7.0,NE,15.0,23.0,0.01,Rain,Rain,50,2013-07-07 19:15:00
2:35 PM,80.8,72.5,76,29.93,10.0,East,12.7,18.4,0.06,,Overcast,90,2013-07-07 19:35:00
2:55 PM,81.1,71.6,73,29.92,10.0,SE,15.0,18.4,0.07,Rain,Light Rain,140,2013-07-07 19:55:00
3:15 PM,83.1,68.5,61,29.92,10.0,SE,12.7,-,N/A,,Clear,140,2013-07-07 20:15:00
3:35 PM,85.8,67.5,54,29.92,10.0,SE,12.7,-,N/A,,Clear,130,2013-07-07 20:35:00
3:55 PM,89.2,66.0,46,29.91,10.0,ESE,11.5,17.3,N/A,,Scattered Clouds,120,2013-07-07 20:55:00
4:15 PM,90.1,63.5,41,29.90,10.0,ESE,13.8,20.7,N/A,,Mostly Cloudy,120,2013-07-07 21:15:00
4:35 PM,88.7,65.1,45,29.91,10.0,SE,19.6,26.5,N/A,,Mostly Cloudy,140,2013-07-07 21:35:00
4:55 PM,85.6,67.6,55,29.91,10.0,SE,17.3,21.9,N/A,,Clear,140,2013-07-07 21:55:00
5:15 PM,85.3,67.1,54,29.91,10.0,SSE,16.1,-,N/A,,Scattered Clouds,150,2013-07-07 22:15:00
5:35 PM,85.3,65.7,52,29.91,10.0,SSE,13.8,21.9,N/A,,Scattered Clouds,150,2013-07-07 22:35:00
5:55 PM,85.5,65.7,51,29.91,10.0,ESE,13.8,18.4,N/A,,Clear,120,2013-07-07 22:55:00
6:15 PM,85.8,64.8,49,29.91,10.0,ESE,11.5,-,N/A,,Clear,120,2013-07-07 23:15:00
6:35 PM,85.5,65.3,51,29.91,10.0,SE,13.8,-,N/A,,Clear,130,2013-07-07 23:35:00
6:55 PM,84.6,64.9,52,29.91,10.0,SSE,13.8,23.0,N/A,,Clear,150,2013-07-07 23:55:00
7:15 PM,84.2,64.2,51,29.91,10.0,SE,16.1,-,N/A,,Clear,130,2013-07-08 00:15:00
7:35 PM,83.7,64.9,53,29.92,10.0,SE,12.7,-,N/A,,Clear,140,2013-07-08 00:35:00
7:55 PM,82.9,65.3,55,29.92,10.0,SE,9.2,-,N/A,,Clear,140,2013-07-08 00:55:00
8:15 PM,82.6,66.4,58,29.92,10.0,SSE,11.5,16.1,N/A,,Clear,150,2013-07-08 01:15:00
8:35 PM,81.9,66.9,60,29.93,10.0,SSE,9.2,-,N/A,,Clear,150,2013-07-08 01:35:00
8:55 PM,81.3,66.9,61,29.93,10.0,SE,6.9,-,N/A,,Clear,140,2013-07-08 01:55:00
9:15 PM,80.8,66.6,62,29.93,10.0,SE,5.8,-,N/A,,Clear,130,2013-07-08 02:15:00
9:35 PM,80.4,66.9,63,29.94,10.0,East,4.6,-,N/A,,Clear,100,2013-07-08 02:35:00
9:55 PM,79.9,67.3,65,29.95,10.0,East,3.5,-,N/A,,Clear,80,2013-07-08 02:55:00
10:15 PM,79.2,67.5,67,29.96,10.0,East,5.8,-,N/A,,Clear,100,2013-07-08 03:15:00
10:35 PM,78.8,67.1,67,29.97,10.0,East,6.9,-,N/A,,Clear,100,2013-07-08 03:35:00
10:55 PM,78.8,67.1,67,29.98,10.0,ESE,6.9,-,N/A,,Clear,110,2013-07-08 03:55:00
11:15 PM,78.1,67.1,69,29.98,10.0,ESE,6.9,-,N/A,,Clear,110,2013-07-08 04:15:00
11:35 PM,77.9,67.1,69,29.99,10.0,ESE,9.2,-,N/A,,Clear,120,2013-07-08 04:35:00
11:55 PM,77.9,67.1,69,29.99,10.0,ESE,11.5,-,N/A,,Clear,120,2013-07-08 04:55:00